When you browse on this site, cookies collect data to enhance your experience and personalize the content and advertising you see.
Visit our Privacy Policy to learn more. By continuing to use the site, you agree to this use of cookies and data.
  • In Hungary
  • List of Countries
  • For 7 days
  • Water Temperature
  • Satellite Maps
  • Weather Map
  • News
  • Weather Widgets
  • user-avatar
    Login

    Hourly Weather Akhaltsikhe

    Today, 18 January, Friday

    Time Temperature Precipitation Wind Pressure Humidity
    00:00 -7°C° 0.1 mm 1 mps 647 mmHg 92%
    01:00 -7°C° 0.1 mm 1 mps 647 mmHg 92%
    02:00 -7°C° 0.1 mm 1 mps 647 mmHg 91%
    03:00 -7°C° 0.1 mm 1 mps 647 mmHg 90%
    04:00 -7°C° 0.1 mm 1 mps 648 mmHg 90%
    05:00 -7°C° 0.1 mm 1 mps 648 mmHg 89%
    06:00 -7°C° 0.1 mm 1 mps 648 mmHg 88%
    07:00 -7°C° 0 mm 1 mps 649 mmHg 87%
    08:00 -6°C° 0 mm 1 mps 649 mmHg 86%
    09:00 -6°C° 0 mm 1 mps 649 mmHg 85%
    10:00 -3°C° 0 mm 1 mps 649 mmHg 84%
    11:00 -2°C° 0 mm 1 mps 650 mmHg 83%
    12:00 -2°C° 0 mm 0 mps 650 mmHg 82%
    13:00 -1°C° 0 mm 0 mps 650 mmHg 81%
    14:00 -1°C° 0 mm 0 mps 649 mmHg 81%
    15:00 -1°C° 0 mm 0 mps 649 mmHg 81%
    16:00 -3°C° 0 mm 0 mps 649 mmHg 82%
    17:00 -5°C° 0 mm 0 mps 649 mmHg 84%
    18:00 -6°C° 0 mm 1 mps 649 mmHg 86%
    19:00 -7°C° 0 mm 1 mps 649 mmHg 84%
    20:00 -7°C° 0 mm 1 mps 649 mmHg 82%
    21:00 -9°C° 0 mm 2 mps 649 mmHg 80%
    22:00 -9°C° 0 mm 2 mps 649 mmHg 79%
    23:00 -9°C° 0 mm 2 mps 649 mmHg 77%

    Tomorrow, 19 January, Saturday

    Time Temperature Precipitation Wind Pressure Humidity
    00:00 -9°C° 0 mm 2 mps 649 mmHg 75%
    01:00 -9°C° 0 mm 2 mps 649 mmHg 73%
    02:00 -10°C° 0 mm 2 mps 648 mmHg 71%
    03:00 -10°C° 0 mm 2 mps 648 mmHg 69%
    04:00 -10°C° 0 mm 2 mps 648 mmHg 67%
    05:00 -10°C° 0 mm 2 mps 648 mmHg 66%
    06:00 -10°C° 0 mm 2 mps 648 mmHg 64%
    07:00 -9°C° 0 mm 2 mps 648 mmHg 65%
    08:00 -8°C° 0 mm 2 mps 648 mmHg 65%
    09:00 -7°C° 0 mm 2 mps 649 mmHg 66%
    10:00 -5°C° 0 mm 2 mps 649 mmHg 66%
    11:00 -3°C° 0 mm 2 mps 649 mmHg 66%
    12:00 -1°C° 0 mm 2 mps 649 mmHg 67%
    13:00 +1°C° 0 mm 1 mps 649 mmHg 69%
    14:00 +2°C° 0 mm 1 mps 649 mmHg 71%
    15:00 +2°C° 0 mm 1 mps 649 mmHg 72%
    16:00 0°C° 0 mm 1 mps 649 mmHg 74%
    17:00 -2°C° 0 mm 1 mps 649 mmHg 75%
    18:00 -6°C° 0 mm 2 mps 648 mmHg 77%
    19:00 -7°C° 0 mm 2 mps 649 mmHg 75%
    20:00 -7°C° 0 mm 2 mps 649 mmHg 74%
    21:00 -7°C° 0 mm 2 mps 649 mmHg 72%
    22:00 -7°C° 0 mm 2 mps 649 mmHg 70%
    23:00 -7°C° 0 mm 2 mps 649 mmHg 68%

    Day after tomorrow, 20 January, Sunday

    Time Temperature Precipitation Wind Pressure Humidity
    00:00 -7°C° 0 mm 2 mps 649 mmHg 66%
    01:00 -7°C° 0 mm 2 mps 649 mmHg 64%
    02:00 -7°C° 0 mm 2 mps 649 mmHg 62%
    03:00 -7°C° 0 mm 2 mps 649 mmHg 61%
    04:00 -7°C° 0 mm 2 mps 649 mmHg 60%
    05:00 -7°C° 0 mm 2 mps 649 mmHg 59%
    06:00 -8°C° 0 mm 2 mps 649 mmHg 58%
    07:00 -7°C° 0 mm 2 mps 649 mmHg 61%
    08:00 -6°C° 0 mm 2 mps 650 mmHg 63%
    09:00 -5°C° 0 mm 2 mps 650 mmHg 66%
    10:00 -2°C° 0 mm 1 mps 650 mmHg 65%
    11:00 0°C° 0 mm 1 mps 650 mmHg 64%
    12:00 +2°C° 0 mm 1 mps 651 mmHg 63%
    13:00 +2°C° 0 mm 1 mps 650 mmHg 65%
    14:00 +1°C° 0 mm 0 mps 650 mmHg 67%
    15:00 +1°C° 0 mm 0 mps 650 mmHg 70%
    16:00 0°C° 0 mm 1 mps 650 mmHg 71%
    17:00 -2°C° 0 mm 1 mps 649 mmHg 73%
    18:00 -3°C° 0 mm 1 mps 649 mmHg 74%
    19:00 -4°C° 0 mm 1 mps 649 mmHg 74%
    20:00 -6°C° 0 mm 2 mps 649 mmHg 73%
    21:00 -7°C° 0 mm 2 mps 649 mmHg 72%
    22:00 -7°C° 0 mm 2 mps 649 mmHg 71%
    23:00 -8°C° 0 mm 2 mps 649 mmHg 69%

    21 January, Monday

    Time Temperature Precipitation Wind Pressure Humidity
    00:00 -8°C° 0 mm 2 mps 649 mmHg 68%
    01:00 -8°C° 0 mm 2 mps 649 mmHg 67%
    02:00 -8°C° 0 mm 2 mps 649 mmHg 66%
    03:00 -9°C° 0 mm 2 mps 649 mmHg 65%
    04:00 -9°C° 0 mm 2 mps 648 mmHg 64%
    05:00 -9°C° 0 mm 2 mps 648 mmHg 64%
    06:00 -9°C° 0 mm 2 mps 648 mmHg 63%
    07:00 -8°C° 0 mm 2 mps 648 mmHg 64%
    08:00 -8°C° 0 mm 2 mps 648 mmHg 65%
    09:00 -7°C° 0 mm 2 mps 649 mmHg 67%
    10:00 -5°C° 0 mm 2 mps 649 mmHg 66%
    11:00 -3°C° 0 mm 2 mps 649 mmHg 66%
    12:00 -1°C° 0 mm 2 mps 649 mmHg 66%
    13:00 +1°C° 0 mm 1 mps 649 mmHg 67%
    14:00 +2°C° 0 mm 1 mps 648 mmHg 69%
    15:00 +2°C° 0 mm 1 mps 648 mmHg 71%
    16:00 0°C° 0 mm 1 mps 648 mmHg 72%
    17:00 -4°C° 0 mm 2 mps 648 mmHg 72%
    18:00 -6°C° 0 mm 2 mps 647 mmHg 73%
    19:00 -7°C° 0 mm 2 mps 647 mmHg 72%
    20:00 -7°C° 0 mm 2 mps 647 mmHg 71%
    21:00 -8°C° 0 mm 2 mps 647 mmHg 70%
    22:00 -8°C° 0 mm 2 mps 647 mmHg 69%
    23:00 -8°C° 0 mm 2 mps 647 mmHg 68%

    22 January, Tuesday

    Time Temperature Precipitation Wind Pressure Humidity
    00:00 -8°C° 0 mm 2 mps 647 mmHg 67%
    01:00 -8°C° 0 mm 2 mps 647 mmHg 67%
    02:00 -8°C° 0 mm 2 mps 647 mmHg 68%
    03:00 -8°C° 0 mm 2 mps 648 mmHg 69%
    04:00 -7°C° 0 mm 2 mps 647 mmHg 70%
    05:00 -7°C° 0 mm 2 mps 647 mmHg 72%
    06:00 -7°C° 0 mm 2 mps 647 mmHg 73%
    07:00 -6°C° 0 mm 2 mps 648 mmHg 76%
    08:00 -6°C° 0 mm 2 mps 648 mmHg 78%
    09:00 -5°C° 0 mm 2 mps 648 mmHg 80%
    10:00 -4°C° 0 mm 2 mps 649 mmHg 80%
    11:00 -2°C° 0 mm 2 mps 649 mmHg 80%
    12:00 -1°C° 0 mm 2 mps 649 mmHg 80%
    13:00 +1°C° 0.2 mm 1 mps 648 mmHg 82%
    14:00 +1°C° 0.2 mm 1 mps 648 mmHg 83%
    15:00 +1°C° 0.2 mm 1 mps 648 mmHg 85%
    16:00 0°C° 0.2 mm 1 mps 648 mmHg 87%
    17:00 -1°C° 0.2 mm 1 mps 648 mmHg 89%
    18:00 -2°C° 0.2 mm 1 mps 648 mmHg 91%
    19:00 -2°C° 0.1 mm 1 mps 648 mmHg 90%
    20:00 -3°C° 0.1 mm 1 mps 648 mmHg 89%
    21:00 -5°C° 0.1 mm 2 mps 648 mmHg 87%
    22:00 -6°C° 0 mm 2 mps 648 mmHg 86%
    23:00 -6°C° 0 mm 2 mps 648 mmHg 85%

    23 January, Wednesday

    Time Temperature Precipitation Wind Pressure Humidity
    00:00 -7°C° 0 mm 2 mps 648 mmHg 83%
    01:00 -7°C° 0 mm 2 mps 648 mmHg 82%
    02:00 -7°C° 0 mm 2 mps 648 mmHg 81%
    03:00 -7°C° 0 mm 2 mps 647 mmHg 81%
    04:00 -7°C° 0 mm 2 mps 647 mmHg 81%
    05:00 -7°C° 0 mm 2 mps 647 mmHg 81%
    06:00 -7°C° 0 mm 2 mps 647 mmHg 81%
    07:00 -6°C° 0.1 mm 2 mps 648 mmHg 81%
    08:00 -6°C° 0.1 mm 2 mps 648 mmHg 81%
    09:00 -5°C° 0.1 mm 2 mps 648 mmHg 81%
    10:00 -4°C° 0 mm 2 mps 648 mmHg 79%
    11:00 0°C° 0 mm 1 mps 648 mmHg 77%
    12:00 +1°C° 0 mm 1 mps 648 mmHg 76%
    13:00 +1°C° 0 mm 1 mps 648 mmHg 76%
    14:00 +2°C° 0 mm 1 mps 648 mmHg 77%
    15:00 +2°C° 0 mm 1 mps 648 mmHg 77%
    16:00 0°C° 0 mm 1 mps 648 mmHg 78%
    17:00 -4°C° 0 mm 2 mps 647 mmHg 79%
    18:00 -5°C° 0 mm 2 mps 647 mmHg 80%
    19:00 -6°C° 0 mm 2 mps 647 mmHg 79%
    20:00 -7°C° 0 mm 2 mps 647 mmHg 78%
    21:00 -7°C° 0 mm 2 mps 647 mmHg 77%
    22:00 -8°C° 0 mm 2 mps 647 mmHg 77%
    23:00 -8°C° 0 mm 2 mps 647 mmHg 77%
    Show more